EW4271 Weather Reports


Display with metric or nautical units.
time (UTC)temp
F
wind
direction
speed
MPH
gust
MPH
rain 1hr
in
rain 24hr
in
rain mn
in
humidity
%
barometer
mb
20260507122125 29 254 0.0 0.0 0.00 0.00 0.00 77 1024.1
20260507121639 29 254 0.0 0.0 0.00 0.00 0.00 77 1024.1
20260507121131 29 254 0.0 0.0 0.00 0.00 0.00 77 1024.1
20260507120629 30 254 0.0 0.0 0.00 0.00 0.00 77 1024.1
20260507120123 30 254 0.0 0.0 0.00 0.00 0.00 77 1024.1
20260507115637 30 254 0.0 0.0 0.00 0.00 0.00 77 1024.2
20260507115152 30 254 0.0 0.0 0.00 0.00 0.00 77 1024.2
20260507114624 30 254 0.0 0.0 0.00 0.00 0.00 77 1024.1
20260507114138 30 254 0.0 0.0 0.00 0.00 0.00 77 1024.1
20260507113631 30 254 0.0 0.0 0.00 0.00 0.00 76 1024.2
20260507113125 30 254 0.0 0.0 0.00 0.00 0.00 76 1024.2
20260507112701 30 254 0.0 0.0 0.00 0.00 0.00 76 1024.3
20260507112133 30 254 0.0 0.0 0.00 0.00 0.00 76 1024.3
20260507111631 30 254 0.0 0.0 0.00 0.00 0.00 75 1024.2
20260507111146 31 254 0.0 0.0 0.00 0.00 0.00 75 1024.1
20260507110639 31 254 0.0 0.0 0.00 0.00 0.00 74 1024.0
20260507110133 31 254 0.0 0.0 0.00 0.00 0.00 74 1024.0
20260507105628 31 254 0.0 0.0 0.00 0.00 0.00 74 1024.0
20260507105141 31 254 0.0 0.0 0.00 0.00 0.00 74 1024.0
20260507104636 31 254 0.0 0.0 0.00 0.00 0.00 73 1024.0
20260507104131 32 254 0.0 0.0 0.00 0.00 0.00 73 1024.0
20260507103646 32 254 0.0 0.0 0.00 0.00 0.00 74 1024.1
20260507103158 32 254 0.0 0.0 0.00 0.00 0.00 73 1024.0
20260507102655 32 254 0.0 0.0 0.00 0.00 0.00 73 1024.0
20260507102127 32 254 0.0 0.0 0.00 0.00 0.00 73 1024.0
20260507101641 32 254 0.0 0.0 0.00 0.00 0.00 73 1024.1
20260507101136 32 254 0.0 0.0 0.00 0.00 0.00 73 1024.1
20260507100651 32 254 0.0 0.0 0.00 0.00 0.00 73 1024.0
20260507100125 32 254 0.0 0.0 0.00 0.00 0.00 72 1024.0
20260507095638 32 254 0.0 0.0 0.00 0.00 0.00 72 1024.0
20260507095132 32 254 0.0 0.0 0.00 0.00 0.00 72 1024.0
20260507094631 32 254 0.0 0.0 0.00 0.00 0.00 72 1023.9
20260507094125 32 254 0.0 0.0 0.00 0.00 0.00 72 1023.9
20260507093639 32 254 0.0 0.0 0.00 0.00 0.00 71 1023.9
20260507093134 32 254 0.0 0.0 0.00 0.00 0.00 71 1023.9
20260507092629 32 254 0.0 0.0 0.00 0.00 0.00 71 1023.9
20260507092142 32 254 0.0 0.0 0.00 0.00 0.00 71 1023.9
20260507091657 32 254 0.0 0.0 0.00 0.00 0.00 72 1023.9
20260507091151 32 254 0.0 0.0 0.00 0.00 0.00 73 1023.9
20260507090624 32 254 0.0 0.0 0.00 0.00 0.00 72 1023.9
20260507090142 32 254 0.0 0.0 0.00 0.00 0.00 73 1023.9
20260507085636 32 254 0.0 0.0 0.00 0.00 0.00 72 1023.8
20260507085131 32 254 0.0 0.0 0.00 0.00 0.00 72 1023.9
20260507084625 32 254 0.0 0.0 0.00 0.00 0.00 71 1023.8
20260507084139 32 254 0.0 0.0 0.00 0.00 0.00 70 1023.7
20260507083634 32 254 0.0 0.0 0.00 0.00 0.00 70 1023.8
20260507083128 32 254 0.0 0.0 0.00 0.00 0.00 69 1023.9
20260507082627 32 254 0.0 0.0 0.00 0.00 0.00 69 1023.8
20260507082140 32 254 0.0 0.0 0.00 0.00 0.00 69 1023.8
20260507081634 32 254 0.0 0.0 0.00 0.00 0.00 69 1023.8
20260507081149 32 254 0.0 0.0 0.00 0.00 0.00 69 1023.8
20260507080623 32 254 0.0 0.0 0.00 0.00 0.00 68 1023.7
20260507080136 33 254 0.0 0.0 0.00 0.00 0.00 68 1023.7
20260507075630 33 254 0.0 0.0 0.00 0.00 0.00 67 1023.8
20260507075125 33 254 0.0 0.0 0.00 0.00 0.00 67 1023.8
20260507074623 33 254 0.0 0.0 0.00 0.00 0.00 67 1023.8
20260507074157 34 254 0.0 0.0 0.00 0.00 0.00 67 1023.9
20260507073651 34 254 0.0 0.0 0.00 0.00 0.00 67 1023.9
20260507073145 34 254 0.0 0.0 0.00 0.00 0.00 67 1023.9
20260507072639 35 254 0.0 2.0 0.00 0.00 0.00 68 1023.8
20260507072133 35 24 0.0 4.0 0.00 0.00 0.00 68 1023.8
20260507071628 35 45 1.0 4.0 0.00 0.00 0.00 67 1023.8
20260507071141 36 243 0.0 0.0 0.00 0.00 0.00 68 1023.8
20260507070636 36 243 0.0 0.0 0.00 0.00 0.00 68 1023.7
20260507070131 36 355 0.0 0.0 0.00 0.00 0.00 68 1023.6
20260507065645 36 265 0.0 0.0 0.00 0.00 0.00 68 1023.4
20260507065142 36 265 0.0 0.0 0.00 0.00 0.00 67 1023.4
20260507064635 35 269 0.0 0.0 0.00 0.00 0.00 68 1023.3
20260507064130 35 269 0.0 0.0 0.00 0.00 0.00 69 1023.3
20260507063624 34 269 0.0 0.0 0.00 0.00 0.00 67 1023.2
20260507063140 34 269 0.0 0.0 0.00 0.00 0.00 67 1023.2
20260507062633 34 269 0.0 0.0 0.00 0.00 0.00 66 1023.3
20260507062127 34 269 0.0 0.0 0.00 0.00 0.00 65 1023.2
20260507061625 34 269 0.0 0.0 0.00 0.00 0.00 65 1023.2
20260507061139 34 269 0.0 0.0 0.00 0.00 0.00 65 1023.2
20260507060634 34 269 0.0 0.0 0.00 0.00 0.00 66 1023.2
20260507060127 34 269 0.0 0.0 0.00 0.00 0.00 66 1023.1
20260507055638 34 269 0.0 0.0 0.00 0.00 0.00 66 1023.0
20260507055134 33 269 0.0 0.0 0.00 0.00 0.00 67 1022.9
20260507054628 33 269 0.0 0.0 0.00 0.00 0.00 66 1022.8
20260507054142 33 269 0.0 0.0 0.00 0.00 0.00 64 1022.8
20260507053637 33 269 0.0 0.0 0.00 0.00 0.00 64 1022.7
20260507053135 34 269 0.0 0.0 0.00 0.00 0.00 63 1022.7
20260507052629 34 269 0.0 0.0 0.00 0.00 0.00 62 1022.7
20260507052142 34 269 0.0 0.0 0.00 0.00 0.00 61 1022.7
20260507051637 34 269 0.0 3.0 0.00 0.00 0.00 60 1022.7
20260507051129 35 269 1.0 3.0 0.00 0.00 0.00 61 1022.8
20260507050624 35 330 0.0 0.0 0.00 0.00 0.00 60 1022.8
20260507050137 35 275 0.0 0.0 0.00 0.00 0.00 60 1022.7
20260507045631 36 275 0.0 0.0 0.00 0.00 0.00 59 1022.7
20260507045123 36 275 0.0 0.0 0.00 0.00 0.00 60 1022.5
20260507044642 36 275 0.0 0.0 0.00 0.00 0.00 59 1022.5
20260507044136 37 275 0.0 0.0 0.00 0.00 0.00 58 1022.5
20260507043630 37 275 0.0 0.0 0.00 0.00 0.00 59 1022.4
20260507043125 37 275 0.0 0.0 0.00 0.00 0.00 59 1022.4
20260507042639 38 275 0.0 0.0 0.00 0.00 0.00 58 1022.3
20260507042134 38 275 0.0 0.0 0.00 0.00 0.00 58 1022.3
20260507041648 39 275 0.0 0.0 0.00 0.00 0.00 59 1022.2
20260507041141 39 275 0.0 0.0 0.00 0.00 0.00 57 1022.2
20260507040656 40 275 0.0 0.0 0.00 0.00 0.00 60 1022.2
20260507040152 40 275 0.0 2.0 0.00 0.00 0.00 60 1022.1
20260507035625 41 275 0.0 2.0 0.00 0.00 0.00 61 1022.0
20260507035140 42 275 0.0 3.0 0.00 0.00 0.00 60 1021.9
20260507034634 42 188 1.0 3.0 0.00 0.00 0.00 61 1021.8
20260507034127 43 136 0.0 0.0 0.00 0.00 0.00 60 1021.7
20260507033640 43 136 0.0 1.0 0.00 0.00 0.00 59 1021.6
20260507033134 43 136 0.0 2.0 0.00 0.00 0.00 59 1021.5
20260507032627 43 136 1.0 4.0 0.00 0.00 0.00 58 1021.5
20260507032123 44 136 2.0 4.0 0.00 0.00 0.00 56 1021.3
20260507031638 44 133 0.0 3.0 0.00 0.00 0.00 55 1021.3
20260507031132 45 111 0.0 2.0 0.00 0.00 0.00 53 1021.1
20260507030625 45 113 1.0 2.0 0.00 0.00 0.00 52 1021.1
20260507030140 46 61 1.0 4.0 0.00 0.00 0.00 52 1021.1
20260507025653 46 79 1.0 5.0 0.00 0.01 0.00 49 1021.0
20260507025125 47 132 1.0 4.0 0.00 0.01 0.00 46 1020.8
20260507024639 47 72 0.0 3.0 0.00 0.01 0.00 39 1020.7
20260507024134 47 309 1.0 3.0 0.00 0.01 0.00 40 1020.5
20260507023632 47 345 0.0 4.0 0.00 0.01 0.00 39 1020.3
20260507023126 47 315 1.0 4.0 0.00 0.01 0.00 39 1020.1
20260507022639 48 282 0.0 0.0 0.00 0.01 0.00 39 1020.0
20260507022133 49 34 0.0 0.0 0.00 0.01 0.00 35 1019.9
20260507021626 49 34 0.0 0.0 0.00 0.01 0.00 35 1019.7
20260507021140 50 34 0.0 0.0 0.00 0.01 0.00 36 1019.6
20260507020633 50 34 0.0 3.0 0.00 0.01 0.00 34 1019.5
20260507020126 50 43 0.0 6.0 0.00 0.01 0.00 33 1019.4
20260507015624 50 32 1.0 6.0 0.00 0.01 0.00 33 1019.3
20260507015139 50 22 1.0 6.0 0.00 0.01 0.00 33 1019.3
20260507014634 50 57 2.0 5.0 0.00 0.01 0.00 34 1019.2
20260507014127 50 54 1.0 5.0 0.00 0.01 0.00 35 1019.2
20260507013622 50 35 1.0 2.0 0.00 0.01 0.00 38 1019.1
20260507013135 51 32 1.0 5.0 0.00 0.01 0.00 38 1019.1
20260507012629 50 52 2.0 8.0 0.00 0.01 0.00 37 1018.9
20260507012143 50 230 1.0 5.0 0.00 0.01 0.00 40 1018.8
20260507011640 50 19 2.0 7.0 0.00 0.01 0.00 40 1018.7
20260507011132 50 282 2.0 7.0 0.00 0.01 0.00 40 1018.6
20260507010626 50 30 1.0 4.0 0.00 0.01 0.00 41 1018.6
20260507010140 51 5 1.0 4.0 0.00 0.01 0.00 42 1018.5
20260507005634 51 12 2.0 5.0 0.00 0.01 0.00 41 1018.5
20260507005147 51 54 2.0 9.0 0.00 0.01 0.00 40 1018.4
20260507004640 51 94 3.0 9.0 0.00 0.01 0.00 40 1018.5
20260507004134 51 239 2.0 6.0 0.00 0.01 0.00 40 1018.6
20260507003628 51 341 2.0 6.0 0.00 0.01 0.00 39 1018.7
20260507003125 52 221 2.0 6.0 0.00 0.01 0.00 39 1018.9
20260507002638 52 41 2.0 5.0 0.00 0.01 0.00 38 1018.7
20260507002130 53 250 2.0 6.0 0.00 0.01 0.00 35 1018.5
20260507001623 53 342 2.0 4.0 0.00 0.01 0.00 36 1018.4
20260507001158 53 40 2.0 5.0 0.00 0.01 0.00 36 1018.1
20260507000649 53 157 2.0 9.0 0.00 0.01 0.00 36 1018.1
20260507000124 54 254 3.0 12.0 0.00 0.01 0.00 36 1018.0
20260506235636 54 9 3.0 12.0 0.00 0.01 0.00 36 1018.1
20260506235128 54 313 4.0 12.0 0.00 0.01 0.00 35 1018.0
20260506234626 54 350 2.0 12.0 0.00 0.01 0.00 34 1018.0
20260506234200 55 96 4.0 11.0 0.00 0.01 0.00 34 1017.8
20260506233631 55 272 5.0 11.0 0.00 0.01 0.00 33 1017.7
20260506233124 55 299 3.0 6.0 0.00 0.01 0.00 34 1017.3
20260506232637 55 281 3.0 8.0 0.00 0.01 0.00 34 1017.4
20260506232129 55 248 3.0 8.0 0.00 0.01 0.00 35 1017.4
20260506231623 54 5 1.0 9.0 0.00 0.01 0.00 36 1017.2
20260506231135 54 38 3.0 9.0 0.00 0.01 0.00 35 1017.2
20260506230629 55 340 3.0 9.0 0.00 0.01 0.00 35 1017.3
20260506230126 55 33 4.0 10.0 0.00 0.01 0.00 34 1017.1
20260506225639 55 9 2.0 10.0 0.00 0.01 0.00 35 1016.8
20260506225133 55 26 4.0 10.0 0.00 0.01 0.00 34 1016.7
20260506224625 55 23 4.0 12.0 0.00 0.01 0.00 34 1016.8
20260506224139 56 355 4.0 12.0 0.00 0.01 0.00 34 1016.8
20260506223653 56 281 4.0 11.0 0.00 0.01 0.00 35 1016.5
20260506223126 56 221 5.0 11.0 0.00 0.01 0.00 37 1016.6
20260506222639 56 23 5.0 11.0 0.00 0.01 0.00 38 1016.5
20260506222133 56 45 5.0 14.0 0.00 0.01 0.00 39 1016.1
20260506221630 55 33 5.0 14.0 0.00 0.01 0.00 39 1016.2
20260506221123 55 355 3.0 8.0 0.00 0.01 0.00 43 1016.1
20260506220636 55 36 4.0 11.0 0.00 0.01 0.00 43 1016.2
20260506220129 54 23 2.0 8.0 0.00 0.01 0.00 44 1016.3
20260506215623 53 244 3.0 14.0 0.00 0.01 0.00 46 1016.2
20260506215157 52 40 4.0 14.0 0.00 0.01 0.00 47 1016.4
20260506214629 53 308 3.0 11.0 0.00 0.01 0.00 46 1016.4
20260506214142 52 292 6.0 12.0 0.00 0.01 0.00 47 1016.7
20260506213635 53 35 5.0 13.0 0.00 0.01 0.00 48 1016.8
20260506213133 53 9 5.0 13.0 0.00 0.01 0.00 48 1017.0
20260506212647 52 277 4.0 12.0 0.00 0.01 0.00 51 1017.0
20260506212138 55 37 5.0 11.0 0.00 0.01 0.00 50 1017.1
20260506211632 58 302 4.0 11.0 0.00 0.01 0.00 38 1016.7
20260506211125 59 266 5.0 11.0 0.00 0.01 0.00 32 1015.9
20260506210639 59 293 3.0 11.0 0.00 0.01 0.00 31 1015.7
20260506210133 60 38 4.0 11.0 0.00 0.01 0.00 31 1015.5
20260506205626 60 219 3.0 6.0 0.00 0.01 0.00 32 1015.4
20260506205123 60 159 3.0 7.0 0.00 0.01 0.00 32 1015.6
20260506204637 60 169 2.0 11.0 0.00 0.01 0.00 33 1015.5
20260506204131 60 18 3.0 11.0 0.00 0.01 0.00 32 1015.7
20260506203625 59 51 3.0 8.0 0.00 0.01 0.00 32 1015.6
20260506203159 59 138 2.0 11.0 0.00 0.01 0.00 35 1015.9
20260506202652 59 118 4.0 10.0 0.00 0.01 0.00 34 1015.9
20260506202123 60 321 3.0 10.0 0.00 0.01 0.00 33 1015.9
20260506201637 59 117 3.0 9.0 0.00 0.01 0.00 33 1015.7
20260506201131 59 335 5.0 11.0 0.00 0.01 0.00 33 1015.8
20260506200628 59 289 5.0 8.0 0.00 0.01 0.00 33 1015.8
20260506200202 59 236 3.0 9.0 0.00 0.01 0.00 38 1015.8
20260506195633 59 233 2.0 9.0 0.00 0.01 0.00 39 1015.8
20260506195127 58 153 2.0 8.0 0.00 0.01 0.00 40 1016.0
20260506194641 57 72 3.0 9.0 0.00 0.01 0.00 42 1015.9
20260506194135 56 255 4.0 9.0 0.00 0.01 0.00 43 1016.0
20260506193627 55 241 3.0 9.0 0.00 0.01 0.00 45 1016.1
20260506193141 54 148 4.0 9.0 0.00 0.01 0.00 46 1016.1
20260506192655 52 32 3.0 7.0 0.00 0.01 0.00 50 1016.3
20260506192132 51 113 3.0 9.0 0.00 0.01 0.00 55 1016.5
20260506191625 51 155 3.0 9.0 0.00 0.01 0.00 53 1016.8
20260506191139 52 76 3.0 12.0 0.00 0.01 0.00 51 1017.0
20260506190633 53 234 4.0 12.0 0.00 0.01 0.00 46 1017.0
20260506190126 54 5 5.0 11.0 0.00 0.01 0.00 43 1016.7
20260506185640 55 257 2.0 10.0 0.00 0.01 0.00 40 1016.5
20260506185154 55 59 3.0 10.0 0.00 0.01 0.00 40 1016.3
20260506184626 55 192 2.0 7.0 0.00 0.01 0.00 42 1016.3
20260506184124 54 76 3.0 11.0 0.00 0.01 0.00 42 1016.6
20260506183636 54 156 4.0 11.0 0.00 0.01 0.00 41 1016.6
20260506183130 54 213 3.0 6.0 0.00 0.01 0.00 42 1016.7
20260506182623 54 272 2.0 6.0 0.00 0.01 0.00 42 1016.7
20260506182158 54 331 2.0 9.0 0.00 0.01 0.00 43 1016.7
20260506181628 54 221 3.0 9.0 0.00 0.01 0.00 41 1016.8
20260506181122 54 276 4.0 10.0 0.00 0.01 0.00 41 1016.8
20260506180636 54 30 4.0 10.0 0.00 0.01 0.00 43 1016.7
20260506180130 54 320 3.0 7.0 0.00 0.01 0.00 39 1016.8
20260506175622 55 5 2.0 8.0 0.00 0.01 0.00 40 1016.8
20260506175156 55 28 2.0 10.0 0.00 0.01 0.00 40 1016.7
20260506174632 54 40 4.0 10.0 0.00 0.01 0.00 39 1016.6
20260506174126 54 39 5.0 11.0 0.00 0.01 0.00 38 1016.7
20260506173639 55 33 5.0 11.0 0.00 0.01 0.00 39 1016.8
20260506173134 55 34 3.0 7.0 0.00 0.01 0.00 39 1016.6
20260506172647 55 54 3.0 7.0 0.00 0.01 0.00 40 1016.6
20260506172139 55 87 3.0 8.0 0.00 0.01 0.00 41 1016.6
20260506171633 55 61 4.0 8.0 0.00 0.01 0.00 39 1016.7
20260506171125 54 26 3.0 8.0 0.00 0.01 0.00 41 1016.7
20260506170644 54 355 3.0 10.0 0.00 0.01 0.00 40 1016.8
20260506170137 54 37 4.0 10.0 0.00 0.01 0.00 41 1016.6
20260506165631 54 31 3.0 6.0 0.00 0.01 0.00 41 1016.4
20260506165125 54 19 4.0 9.0 0.00 0.01 0.00 42 1016.3
20260506164640 53 27 4.0 9.0 0.00 0.01 0.00 43 1016.3
20260506164153 53 67 4.0 9.0 0.00 0.01 0.00 43 1016.3
20260506163646 53 252 2.0 9.0 0.00 0.01 0.00 45 1016.2
20260506163139 52 31 2.0 9.0 0.00 0.01 0.00 46 1016.2
20260506162633 52 290 2.0 8.0 0.00 0.01 0.00 46 1016.1
20260506162129 52 161 3.0 8.0 0.00 0.01 0.00 46 1016.1
20260506161623 52 298 2.0 7.0 0.00 0.01 0.00 50 1016.2
20260506161137 51 149 3.0 9.0 0.00 0.01 0.00 51 1016.1
20260506160631 50 30 3.0 9.0 0.00 0.01 0.00 50 1016.2
20260506160125 50 279 2.0 9.0 0.00 0.01 0.00 51 1016.4
20260506155637 49 5 4.0 10.0 0.00 0.01 0.00 51 1016.3
20260506155152 49 277 5.0 10.0 0.00 0.01 0.00 52 1016.5
20260506154646 48 240 4.0 9.0 0.00 0.01 0.00 53 1016.5
20260506154138 48 15 4.0 11.0 0.00 0.01 0.00 52 1016.6
20260506153636 48 255 4.0 12.0 0.00 0.01 0.00 52 1016.6
20260506153129 48 29 5.0 12.0 0.00 0.01 0.00 53 1016.6
20260506152623 47 350 3.0 12.0 0.00 0.01 0.00 53 1016.7
20260506152137 48 14 4.0 12.0 0.00 0.01 0.00 53 1016.8
20260506151630 48 132 1.0 6.0 0.00 0.01 0.00 56 1016.8
20260506151123 48 213 2.0 5.0 0.00 0.01 0.00 57 1016.6
20260506150637 47 163 2.0 4.0 0.00 0.01 0.00 58 1016.6
20260506150132 46 248 1.0 3.0 0.00 0.01 0.00 58 1016.7
20260506145630 46 75 2.0 9.0 0.00 0.01 0.00 61 1016.7
20260506145124 46 30 6.0 10.0 0.00 0.01 0.00 57 1016.7
20260506144638 46 36 6.0 10.0 0.00 0.01 0.00 56 1016.8
20260506144132 46 34 1.0 6.0 0.00 0.01 0.00 57 1016.8
20260506143625 46 56 3.0 5.0 0.00 0.01 0.00 60 1016.8
20260506143139 45 109 2.0 6.0 0.00 0.01 0.00 60 1016.7
20260506142633 44 61 4.0 6.0 0.00 0.01 0.00 60 1016.7
20260506142127 44 43 0.0 5.0 0.00 0.01 0.00 60 1016.6
20260506141625 44 61 4.0 5.0 0.00 0.01 0.00 59 1016.6
20260506141158 44 9 4.0 5.0 0.00 0.01 0.00 58 1016.6
20260506140651 45 355 1.0 5.0 0.00 0.01 0.00 58 1016.4
20260506140123 45 55 3.0 6.0 0.00 0.01 0.00 57 1016.3
20260506135635 44 146 3.0 7.0 0.00 0.01 0.00 59 1016.2
20260506135130 44 133 2.0 7.0 0.00 0.01 0.00 60 1016.2
20260506134623 43 43 2.0 7.0 0.00 0.01 0.00 59 1016.2
20260506134136 43 83 3.0 10.0 0.00 0.01 0.00 61 1016.3
20260506133630 43 207 2.0 10.0 0.00 0.01 0.00 61 1016.4
20260506133123 43 183 2.0 6.0 0.00 0.01 0.00 62 1016.4
20260506132641 42 108 3.0 8.0 0.00 0.01 0.00 61 1016.4
20260506132134 42 276 4.0 9.0 0.00 0.01 0.00 60 1016.1
20260506131627 42 132 1.0 9.0 0.00 0.01 0.00 61 1016.1
20260506131142 42 76 3.0 9.0 0.00 0.01 0.00 61 1016.1
20260506130635 42 90 4.0 10.0 0.00 0.01 0.00 61 1016.1
20260506130128 42 216 3.0 11.0 0.00 0.01 0.00 63 1016.0
20260506125701 41 174 3.0 11.0 0.00 0.01 0.00 63 1016.0
20260506125134 41 39 3.0 10.0 0.00 0.01 0.00 64 1016.0
20260506124649 41 149 5.0 8.0 0.00 0.01 0.00 67 1016.0
20260506124125 41 156 0.0 5.0 0.00 0.01 0.00 69 1015.9
20260506123639 41 173 2.0 5.0 0.00 0.01 0.00 69 1015.9
20260506123132 41 83 0.0 0.0 0.00 0.01 0.00 66 1015.9
20260506122626 41 81 0.0 2.0 0.00 0.01 0.00 66 1015.8